Time,TemperatureF,DewpointF,PressureIn,WindDirection,WindDirectionDegrees,WindSpeedMPH,WindSpeedGustMPH,Humidity,HourlyPrecipIn,Conditions,Clouds,dailyrainin,SoftwareType,DateUTC
2013-10-28 00:01:00,39.9,39.4,30.36,NE,45,3.6,7.6,98,0.04,,---,0.00,VWS V14.01,2013-10-28 07:01:00,
2013-10-28 00:06:00,39.9,39.4,30.36,NNE,22,7.6,9.2,98,0.04,,---,0.00,VWS V14.01,2013-10-28 07:06:00,
2013-10-28 00:11:00,40.1,39.6,30.36,North,0,7.6,7.6,98,0.04,,---,0.00,VWS V14.01,2013-10-28 07:11:00,
2013-10-28 00:16:00,40.1,39.6,30.36,NNE,22,6.3,6.3,98,0.04,,---,0.00,VWS V14.01,2013-10-28 07:16:00,
2013-10-28 00:21:00,40.1,39.6,30.36,North,0,3.6,3.6,98,0.04,,---,0.00,VWS V14.01,2013-10-28 07:21:00,
2013-10-28 00:26:00,40.3,39.8,30.36,NNE,22,8.3,8.7,98,0.04,,---,0.00,VWS V14.01,2013-10-28 07:26:00,
2013-10-28 00:31:00,40.3,39.8,30.36,NE,45,9.2,9.2,98,0.04,,---,0.00,VWS V14.01,2013-10-28 07:31:00,
2013-10-28 00:36:00,40.3,39.8,30.36,North,0,8.7,8.7,98,0.04,,---,0.00,VWS V14.01,2013-10-28 07:36:00,
2013-10-28 00:41:00,40.5,39.9,30.36,NE,45,5.8,5.8,98,0.04,,---,0.00,VWS V14.01,2013-10-28 07:41:00,
2013-10-28 00:46:00,40.5,39.9,30.36,North,0,7.6,7.6,98,0.04,,---,0.00,VWS V14.01,2013-10-28 07:46:00,
2013-10-28 00:51:00,40.6,40.1,30.36,NE,45,8.7,8.7,98,0.00,,---,0.00,VWS V14.01,2013-10-28 07:51:00,
2013-10-28 00:56:00,40.6,40.1,30.36,North,0,5.4,10.5,98,0.00,,---,0.00,VWS V14.01,2013-10-28 07:56:00,
2013-10-28 01:01:00,40.6,40.1,30.36,North,0,5.8,5.8,98,0.00,,---,0.00,VWS V14.01,2013-10-28 08:01:00,
2013-10-28 01:06:00,40.6,40.1,30.36,NNE,22,10.1,10.5,98,0.00,,---,0.00,VWS V14.01,2013-10-28 08:06:00,
2013-10-28 01:11:00,40.6,40.1,30.36,NNE,22,5.4,5.4,98,0.00,,---,0.00,VWS V14.01,2013-10-28 08:11:00,
2013-10-28 01:16:00,40.6,40.1,30.36,NNE,22,5.4,6.3,98,0.00,,---,0.00,VWS V14.01,2013-10-28 08:16:00,
2013-10-28 01:21:00,40.8,40.3,30.36,North,0,8.1,8.1,98,0.00,,---,0.00,VWS V14.01,2013-10-28 08:21:00,
2013-10-28 01:26:00,40.8,40.3,30.36,NE,45,8.3,8.7,98,0.00,,---,0.00,VWS V14.01,2013-10-28 08:26:00,
2013-10-28 01:31:00,40.6,40.1,30.36,North,0,7.2,12.3,98,0.00,,---,0.00,VWS V14.01,2013-10-28 08:31:00,
2013-10-28 01:36:00,40.6,40.1,30.36,NNE,22,14.5,15.4,98,0.00,,---,0.00,VWS V14.01,2013-10-28 08:36:00,
2013-10-28 01:41:00,40.5,39.9,30.36,NE,45,11.0,12.3,98,0.00,,---,0.00,VWS V14.01,2013-10-28 08:41:00,
2013-10-28 01:46:00,40.5,39.9,30.36,NNE,22,15.4,15.4,98,0.00,,---,0.00,VWS V14.01,2013-10-28 08:46:00,
2013-10-28 01:51:00,40.5,39.9,30.36,NE,45,8.1,10.5,98,0.00,,---,0.00,VWS V14.01,2013-10-28 08:51:00,
2013-10-28 01:56:00,40.1,39.6,30.36,NE,45,9.2,9.6,98,0.00,,---,0.00,VWS V14.01,2013-10-28 08:56:00,
2013-10-28 02:01:00,39.9,39.4,30.36,NNE,22,15.4,15.4,98,0.00,,---,0.00,VWS V14.01,2013-10-28 09:01:00,
2013-10-28 02:06:00,39.7,39.2,30.36,NE,45,10.5,10.5,98,0.00,,---,0.00,VWS V14.01,2013-10-28 09:06:00,
2013-10-28 02:11:00,39.2,38.7,30.36,North,0,8.1,10.5,98,0.00,,---,0.00,VWS V14.01,2013-10-28 09:11:00,
2013-10-28 02:16:00,39.0,38.5,30.36,NE,45,11.9,12.8,98,0.00,,---,0.00,VWS V14.01,2013-10-28 09:16:00,
2013-10-28 02:21:00,39.0,38.5,30.36,NE,45,17.5,17.5,98,0.00,,---,0.00,VWS V14.01,2013-10-28 09:21:00,
2013-10-28 02:26:00,38.8,38.3,30.36,NNE,22,11.0,13.6,98,0.00,,---,0.00,VWS V14.01,2013-10-28 09:26:00,
2013-10-28 02:31:00,38.8,38.3,30.36,NE,45,8.7,8.7,98,0.00,,---,0.00,VWS V14.01,2013-10-28 09:31:00,
2013-10-28 02:36:00,38.5,38.0,30.36,North,0,5.4,12.3,98,0.00,,---,0.00,VWS V14.01,2013-10-28 09:36:00,
2013-10-28 02:41:00,38.3,37.8,30.36,North,0,8.3,12.3,98,0.00,,---,0.00,VWS V14.01,2013-10-28 09:41:00,
2013-10-28 02:46:00,38.1,37.6,30.36,NE,45,5.4,11.0,98,0.00,,---,0.00,VWS V14.01,2013-10-28 09:46:00,
2013-10-28 02:51:00,38.1,37.6,30.36,North,0,15.9,15.9,98,0.00,,---,0.00,VWS V14.01,2013-10-28 09:51:00,
2013-10-28 02:56:00,37.9,37.4,30.36,NE,45,5.8,5.8,98,0.00,,---,0.00,VWS V14.01,2013-10-28 09:56:00,
2013-10-28 03:01:00,37.8,37.2,30.36,North,0,8.3,8.3,98,0.00,,---,0.00,VWS V14.01,2013-10-28 10:01:00,
2013-10-28 03:06:00,37.8,36.7,30.36,NE,45,10.5,10.5,96,0.00,,---,0.00,VWS V14.01,2013-10-28 10:06:00,
2013-10-28 03:11:00,37.6,36.3,30.36,North,0,8.7,10.1,95,0.00,,---,0.00,VWS V14.01,2013-10-28 10:11:00,
2013-10-28 03:16:00,37.6,36.0,30.36,North,0,8.1,10.1,94,0.00,,---,0.00,VWS V14.01,2013-10-28 10:16:00,
2013-10-28 03:21:00,37.4,35.6,30.36,North,0,8.3,11.0,93,0.00,,---,0.00,VWS V14.01,2013-10-28 10:21:00,
2013-10-28 03:26:00,37.4,35.3,30.36,North,0,8.7,8.7,92,0.00,,---,0.00,VWS V14.01,2013-10-28 10:26:00,
2013-10-28 03:31:00,37.2,34.8,30.36,NE,45,8.7,8.7,91,0.00,,---,0.00,VWS V14.01,2013-10-28 10:31:00,
2013-10-28 03:36:00,37.0,34.1,30.36,NE,45,8.7,10.1,89,0.00,,---,0.00,VWS V14.01,2013-10-28 10:36:00,
2013-10-28 03:41:00,36.9,33.9,30.36,North,0,8.3,10.5,89,0.00,,---,0.00,VWS V14.01,2013-10-28 10:41:00,
2013-10-28 03:46:00,36.9,33.7,30.36,North,0,7.6,7.6,88,0.00,,---,0.00,VWS V14.01,2013-10-28 10:46:00,
2013-10-28 03:51:00,36.7,33.5,30.36,North,0,4.9,8.7,88,0.00,,---,0.00,VWS V14.01,2013-10-28 10:51:00,
2013-10-28 03:56:00,36.7,33.2,30.36,North,0,5.4,8.7,87,0.00,,---,0.00,VWS V14.01,2013-10-28 10:56:00,
2013-10-28 04:01:00,36.7,32.9,30.36,NE,45,7.2,8.7,86,0.00,,---,0.00,VWS V14.01,2013-10-28 11:01:00,
2013-10-28 04:06:00,36.5,32.4,30.36,North,0,8.7,8.7,85,0.00,,---,0.00,VWS V14.01,2013-10-28 11:06:00,
2013-10-28 04:11:00,36.3,32.2,30.36,North,0,12.3,12.3,85,0.00,,---,0.00,VWS V14.01,2013-10-28 11:11:00,
2013-10-28 04:16:00,36.3,32.0,30.36,North,0,8.7,9.6,84,0.00,,---,0.00,VWS V14.01,2013-10-28 11:16:00,
2013-10-28 04:21:00,36.3,32.0,30.36,NE,45,11.0,11.0,84,0.00,,---,0.00,VWS V14.01,2013-10-28 11:21:00,
2013-10-28 04:26:00,36.1,31.5,30.39,NE,45,8.3,11.9,83,0.00,,---,0.00,VWS V14.01,2013-10-28 11:26:00,
2013-10-28 04:31:00,36.1,31.5,30.39,NNE,22,8.1,8.3,83,0.00,,---,0.00,VWS V14.01,2013-10-28 11:31:00,
2013-10-28 04:36:00,36.0,31.6,30.39,North,0,6.3,7.6,84,0.00,,---,0.00,VWS V14.01,2013-10-28 11:36:00,
2013-10-28 04:41:00,35.8,31.4,30.39,North,0,5.4,8.7,84,0.00,,---,0.00,VWS V14.01,2013-10-28 11:41:00,
2013-10-28 04:46:00,35.6,31.0,30.39,North,0,15.9,15.9,83,0.00,,---,0.00,VWS V14.01,2013-10-28 11:46:00,
2013-10-28 04:51:00,35.2,30.9,30.39,North,0,8.7,11.0,84,0.00,,---,0.00,VWS V14.01,2013-10-28 11:51:00,
2013-10-28 04:56:00,35.1,30.7,30.39,NNE,22,8.3,12.3,84,0.00,,---,0.00,VWS V14.01,2013-10-28 11:56:00,
2013-10-28 05:01:00,34.9,30.8,30.39,North,0,10.1,10.1,85,0.00,,---,0.00,VWS V14.01,2013-10-28 12:01:00,
2013-10-28 05:06:00,34.7,31.0,30.39,North,0,10.1,11.0,86,0.00,,---,0.00,VWS V14.01,2013-10-28 12:06:00,
2013-10-28 05:11:00,34.5,31.1,30.39,North,0,7.6,13.6,87,0.00,,---,0.00,VWS V14.01,2013-10-28 12:11:00,
2013-10-28 05:16:00,34.2,31.0,30.39,NNE,22,8.3,11.0,88,0.00,,---,0.00,VWS V14.01,2013-10-28 12:16:00,
2013-10-28 05:21:00,34.0,31.1,30.39,NNE,22,5.4,7.6,89,0.00,,---,0.00,VWS V14.01,2013-10-28 12:21:00,
2013-10-28 05:26:00,33.8,31.2,30.39,North,0,9.6,11.0,90,0.00,,---,0.00,VWS V14.01,2013-10-28 12:26:00,
2013-10-28 05:31:00,33.8,31.5,30.39,NE,45,9.6,9.6,91,0.00,,---,0.00,VWS V14.01,2013-10-28 12:31:00,
2013-10-28 05:36:00,33.8,31.7,30.39,North,0,5.8,8.3,92,0.00,,---,0.00,VWS V14.01,2013-10-28 12:36:00,
2013-10-28 05:41:00,33.8,32.0,30.39,North,0,5.8,7.2,93,0.00,,---,0.00,VWS V14.01,2013-10-28 12:41:00,
2013-10-28 05:46:00,33.8,32.0,30.39,North,0,6.7,13.2,93,0.00,,---,0.00,VWS V14.01,2013-10-28 12:46:00,
2013-10-28 05:51:00,33.8,32.0,30.39,North,0,10.1,10.1,93,0.00,,---,0.00,VWS V14.01,2013-10-28 12:51:00,
2013-10-28 05:56:00,33.8,32.0,30.39,North,0,7.2,7.6,93,0.00,,---,0.00,VWS V14.01,2013-10-28 12:56:00,
2013-10-28 06:01:00,33.8,32.0,30.39,North,0,6.3,11.0,93,0.00,,---,0.00,VWS V14.01,2013-10-28 13:01:00,
2013-10-28 06:06:00,33.8,32.3,30.39,NNE,22,8.7,12.8,94,0.00,,---,0.00,VWS V14.01,2013-10-28 13:06:00,
2013-10-28 06:11:00,33.8,32.3,30.39,North,0,8.3,12.3,94,0.00,,---,0.00,VWS V14.01,2013-10-28 13:11:00,
2013-10-28 06:16:00,33.6,32.1,30.39,NE,45,9.6,11.4,94,0.00,,---,0.00,VWS V14.01,2013-10-28 13:16:00,
2013-10-28 06:21:00,33.6,32.1,30.39,North,0,6.3,10.5,94,0.00,,---,0.00,VWS V14.01,2013-10-28 13:21:00,
2013-10-28 06:26:00,33.6,32.1,30.39,North,0,9.6,11.0,94,0.00,,---,0.00,VWS V14.01,2013-10-28 13:26:00,
2013-10-28 06:31:00,33.4,31.9,30.39,NE,45,13.6,15.0,94,0.00,,---,0.00,VWS V14.01,2013-10-28 13:31:00,
2013-10-28 06:36:00,33.4,31.9,30.39,North,0,5.8,8.1,94,0.00,,---,0.00,VWS V14.01,2013-10-28 13:36:00,
2013-10-28 06:41:00,33.4,32.2,30.39,North,0,4.0,5.8,95,0.00,,---,0.00,VWS V14.01,2013-10-28 13:41:00,
2013-10-28 06:46:00,33.3,32.0,30.39,NW,315,12.8,12.8,95,0.00,,---,0.00,VWS V14.01,2013-10-28 13:46:00,
2013-10-28 06:51:00,33.3,32.2,30.39,North,0,8.7,8.7,96,0.00,,---,0.00,VWS V14.01,2013-10-28 13:51:00,
2013-10-28 06:56:00,33.3,32.2,30.39,NE,45,13.2,13.2,96,0.00,,---,0.00,VWS V14.01,2013-10-28 13:56:00,
2013-10-28 07:01:00,33.3,32.2,30.39,North,0,5.4,10.1,96,0.00,,---,0.00,VWS V14.01,2013-10-28 14:01:00,
2013-10-28 07:06:00,33.3,32.5,30.39,NNE,22,10.1,13.2,97,0.00,,---,0.00,VWS V14.01,2013-10-28 14:06:00,
2013-10-28 07:11:00,33.1,32.3,30.39,North,0,8.3,10.1,97,0.00,,---,0.00,VWS V14.01,2013-10-28 14:11:00,
2013-10-28 07:16:00,33.1,32.3,30.39,NNE,22,8.1,8.7,97,0.00,,---,0.00,VWS V14.01,2013-10-28 14:16:00,
2013-10-28 07:21:00,33.1,32.3,30.39,North,0,10.1,11.0,97,0.00,,---,0.00,VWS V14.01,2013-10-28 14:21:00,
2013-10-28 07:26:00,33.1,32.3,30.39,NNE,22,8.3,12.8,97,0.00,,---,0.00,VWS V14.01,2013-10-28 14:26:00,
2013-10-28 07:31:00,33.1,32.3,30.39,NE,45,8.3,10.1,97,0.00,,---,0.00,VWS V14.01,2013-10-28 14:31:00,
2013-10-28 07:36:00,33.1,32.1,30.39,North,0,9.6,11.0,96,0.00,,---,0.00,VWS V14.01,2013-10-28 14:36:00,
2013-10-28 07:41:00,33.1,32.1,30.39,NNE,22,8.7,8.7,96,0.00,,---,0.00,VWS V14.01,2013-10-28 14:41:00,
2013-10-28 07:46:00,33.1,31.8,30.39,NNE,22,8.3,9.2,95,0.00,,---,0.00,VWS V14.01,2013-10-28 14:46:00,
2013-10-28 07:51:00,33.1,31.5,30.39,North,0,3.6,8.3,94,0.00,,---,0.00,VWS V14.01,2013-10-28 14:51:00,
2013-10-28 07:56:00,33.1,31.3,30.39,North,0,5.8,10.1,93,0.00,,---,0.00,VWS V14.01,2013-10-28 14:56:00,
2013-10-28 08:01:00,33.3,30.9,30.41,NE,45,8.1,13.2,91,0.00,,---,0.00,VWS V14.01,2013-10-28 15:01:00,
2013-10-28 08:06:00,33.3,30.4,30.41,NE,45,5.4,10.1,89,0.00,,---,0.00,VWS V14.01,2013-10-28 15:06:00,
2013-10-28 08:11:00,33.3,30.1,30.41,NE,45,8.1,8.1,88,0.00,,---,0.00,VWS V14.01,2013-10-28 15:11:00,
2013-10-28 08:16:00,33.3,30.1,30.41,NE,45,4.9,7.2,88,0.00,,---,0.00,VWS V14.01,2013-10-28 15:16:00,
2013-10-28 08:20:00,33.3,29.8,30.41,NE,45,8.1,10.1,87,0.00,,---,0.00,VWS V14.01,2013-10-28 15:20:00,
2013-10-28 08:25:00,33.3,29.8,30.41,North,0,6.3,6.7,87,0.00,,---,0.00,VWS V14.01,2013-10-28 15:25:00,
2013-10-28 08:30:00,33.1,29.4,30.41,North,0,7.2,10.1,86,0.00,,---,0.00,VWS V14.01,2013-10-28 15:30:00,
2013-10-28 08:35:00,33.1,29.1,30.41,NNE,22,8.3,12.3,85,0.00,,---,0.00,VWS V14.01,2013-10-28 15:35:00,
2013-10-28 08:40:00,33.1,28.8,30.41,North,0,4.9,8.7,84,0.00,,---,0.00,VWS V14.01,2013-10-28 15:40:00,
2013-10-28 08:45:00,33.1,28.8,30.41,NNE,22,6.3,7.6,84,0.00,,---,0.00,VWS V14.01,2013-10-28 15:45:00,
2013-10-28 08:50:00,33.1,28.5,30.41,North,0,5.4,8.7,83,0.00,,---,0.00,VWS V14.01,2013-10-28 15:50:00,
2013-10-28 08:55:00,33.1,28.5,30.41,NNW,338,7.6,10.5,83,0.00,,---,0.00,VWS V14.01,2013-10-28 15:55:00,
2013-10-28 09:00:00,33.1,28.5,30.41,North,0,5.4,10.5,83,0.00,,---,0.00,VWS V14.01,2013-10-28 16:00:00,
2013-10-28 09:05:00,33.1,28.5,30.41,North,0,7.6,7.6,83,0.00,,---,0.00,VWS V14.01,2013-10-28 16:05:00,
2013-10-28 09:10:00,33.1,28.5,30.41,North,0,5.4,7.6,83,0.00,,---,0.00,VWS V14.01,2013-10-28 16:10:00,
2013-10-28 09:15:00,33.1,27.6,30.41,NW,315,8.1,8.1,80,0.00,,---,0.00,VWS V14.01,2013-10-28 16:15:00,
2013-10-28 09:20:00,33.1,27.6,30.41,North,0,7.2,10.5,80,0.00,,---,0.00,VWS V14.01,2013-10-28 16:20:00,
2013-10-28 09:25:00,33.1,27.3,30.41,NNW,338,7.2,11.0,79,0.00,,---,0.00,VWS V14.01,2013-10-28 16:25:00,
2013-10-28 09:30:00,33.1,27.0,30.41,North,0,9.6,10.1,78,0.00,,---,0.00,VWS V14.01,2013-10-28 16:30:00,
2013-10-28 09:35:00,33.1,27.0,30.41,NE,45,7.2,7.2,78,0.00,,---,0.00,VWS V14.01,2013-10-28 16:35:00,
2013-10-28 09:40:00,33.1,27.0,30.41,NNE,22,11.0,11.0,78,0.00,,---,0.00,VWS V14.01,2013-10-28 16:40:00,
2013-10-28 09:45:00,33.1,26.7,30.41,North,0,5.4,5.4,77,0.00,,---,0.00,VWS V14.01,2013-10-28 16:45:00,
2013-10-28 09:50:00,33.1,26.7,30.41,NE,45,7.2,7.2,77,0.00,,---,0.00,VWS V14.01,2013-10-28 16:50:00,
2013-10-28 09:55:00,33.1,26.7,30.41,North,0,6.3,8.7,77,0.00,,---,0.00,VWS V14.01,2013-10-28 16:55:00,
2013-10-28 10:00:00,33.1,26.7,30.41,NNE,22,6.3,8.3,77,0.00,,---,0.00,VWS V14.01,2013-10-28 17:00:00,
2013-10-28 10:05:00,32.7,26.3,30.41,North,0,8.3,10.1,77,0.00,,---,0.00,VWS V14.01,2013-10-28 17:05:00,
2013-10-28 10:10:00,32.5,26.5,30.41,North,0,8.1,8.7,78,0.00,,---,0.00,VWS V14.01,2013-10-28 17:10:00,
2013-10-28 10:15:00,32.2,27.0,30.41,North,0,6.3,6.3,81,0.00,,---,0.00,VWS V14.01,2013-10-28 17:15:00,
2013-10-28 10:20:00,32.2,27.6,30.41,NE,45,6.3,7.6,83,0.00,,---,0.00,VWS V14.01,2013-10-28 17:20:00,
2013-10-28 10:25:00,32.0,28.0,30.41,NE,45,9.2,9.2,85,0.00,,---,0.00,VWS V14.01,2013-10-28 17:25:00,
2013-10-28 10:30:00,32.0,28.3,30.41,North,0,6.3,10.5,86,0.00,,---,0.00,VWS V14.01,2013-10-28 17:30:00,
2013-10-28 10:35:00,32.0,28.3,30.41,NNE,22,8.3,8.7,86,0.00,,---,0.00,VWS V14.01,2013-10-28 17:35:00,
2013-10-28 10:40:00,32.0,28.3,30.41,NW,315,6.3,8.3,86,0.00,,---,0.00,VWS V14.01,2013-10-28 17:40:00,
2013-10-28 10:45:00,32.2,28.5,30.41,North,0,7.2,10.5,86,0.00,,---,0.00,VWS V14.01,2013-10-28 17:45:00,
2013-10-28 10:50:00,32.2,28.5,30.41,North,0,3.6,5.4,86,0.00,,---,0.00,VWS V14.01,2013-10-28 17:50:00,
2013-10-28 10:55:00,32.2,28.5,30.41,North,0,6.3,6.3,86,0.00,,---,0.00,VWS V14.01,2013-10-28 17:55:00,
2013-10-28 11:00:00,32.4,28.4,30.41,North,0,5.4,8.3,85,0.00,,---,0.00,VWS V14.01,2013-10-28 18:00:00,
2013-10-28 11:05:00,32.7,27.8,30.41,NNE,22,7.6,7.6,82,0.00,,---,0.00,VWS V14.01,2013-10-28 18:05:00,
2013-10-28 11:10:00,33.1,27.3,30.41,North,0,3.6,12.3,79,0.00,,---,0.00,VWS V14.01,2013-10-28 18:10:00,
2013-10-28 11:15:00,33.3,26.5,30.41,North,0,4.9,8.1,76,0.00,,---,0.00,VWS V14.01,2013-10-28 18:15:00,
2013-10-28 11:20:00,33.6,25.9,30.41,North,0,8.3,8.3,73,0.00,,---,0.00,VWS V14.01,2013-10-28 18:20:00,
2013-10-28 11:25:00,33.8,25.1,30.41,North,0,5.4,10.5,70,0.00,,---,0.00,VWS V14.01,2013-10-28 18:25:00,
2013-10-28 11:30:00,33.8,24.7,30.41,NE,45,8.3,8.3,69,0.00,,---,0.00,VWS V14.01,2013-10-28 18:30:00,
2013-10-28 11:35:00,34.0,24.9,30.41,NNE,22,6.7,8.1,69,0.00,,---,0.00,VWS V14.01,2013-10-28 18:35:00,
2013-10-28 11:40:00,34.0,24.2,30.41,North,0,8.3,10.1,67,0.00,,---,0.00,VWS V14.01,2013-10-28 18:40:00,
2013-10-28 11:45:00,34.2,24.0,30.41,NNE,22,10.5,10.5,66,0.00,,---,0.00,VWS V14.01,2013-10-28 18:45:00,
2013-10-28 11:50:00,34.3,24.2,30.41,NE,45,5.8,10.5,66,0.00,,---,0.00,VWS V14.01,2013-10-28 18:50:00,
2013-10-28 11:55:00,34.7,23.8,30.41,NE,45,11.0,12.8,64,0.00,,---,0.00,VWS V14.01,2013-10-28 18:55:00,
2013-10-28 12:00:00,34.7,23.4,30.41,North,0,13.2,13.2,63,0.00,,---,0.00,VWS V14.01,2013-10-28 19:00:00,
2013-10-28 12:05:00,34.7,23.0,30.41,NE,45,8.7,10.5,62,0.00,,---,0.00,VWS V14.01,2013-10-28 19:05:00,
2013-10-28 12:10:00,34.9,22.8,30.41,NE,45,7.6,13.2,61,0.00,,---,0.00,VWS V14.01,2013-10-28 19:10:00,
2013-10-28 12:15:00,34.9,22.4,30.41,NNE,22,9.6,9.6,60,0.00,,---,0.00,VWS V14.01,2013-10-28 19:15:00,
2013-10-28 12:20:00,35.1,22.6,30.41,North,0,7.6,9.6,60,0.00,,---,0.00,VWS V14.01,2013-10-28 19:20:00,
2013-10-28 12:25:00,35.2,22.8,30.39,North,0,11.9,11.9,60,0.00,,---,0.00,VWS V14.01,2013-10-28 19:25:00,
2013-10-28 12:30:00,35.2,22.0,30.39,NNE,22,10.5,11.9,58,0.00,,---,0.00,VWS V14.01,2013-10-28 19:30:00,
2013-10-28 12:35:00,35.4,21.7,30.39,North,0,8.1,12.3,57,0.00,,---,0.00,VWS V14.01,2013-10-28 19:35:00,
2013-10-28 12:40:00,35.6,21.9,30.39,NE,45,10.5,15.0,57,0.00,,---,0.00,VWS V14.01,2013-10-28 19:40:00,
2013-10-28 12:45:00,35.4,21.3,30.39,North,0,18.3,18.3,56,0.00,,---,0.00,VWS V14.01,2013-10-28 19:45:00,
2013-10-28 12:50:00,35.6,21.5,30.39,NE,45,10.5,10.5,56,0.00,,---,0.00,VWS V14.01,2013-10-28 19:50:00,
2013-10-28 12:55:00,35.8,21.6,30.39,NE,45,11.0,12.3,56,0.00,,---,0.00,VWS V14.01,2013-10-28 19:55:00,
2013-10-28 13:00:00,35.6,21.5,30.39,NE,45,8.3,8.3,56,0.00,,---,0.00,VWS V14.01,2013-10-28 20:00:00,
2013-10-28 13:05:00,35.4,20.9,30.39,NNE,22,9.6,12.8,55,0.00,,---,0.00,VWS V14.01,2013-10-28 20:05:00,
2013-10-28 13:10:00,35.4,21.3,30.39,NNE,22,10.5,11.0,56,0.00,,---,0.00,VWS V14.01,2013-10-28 20:10:00,
2013-10-28 13:15:00,35.2,20.7,30.39,NE,45,11.0,11.0,55,0.00,,---,0.00,VWS V14.01,2013-10-28 20:15:00,
2013-10-28 13:20:00,35.4,21.3,30.39,North,0,6.7,7.6,56,0.00,,---,0.00,VWS V14.01,2013-10-28 20:20:00,
2013-10-28 13:25:00,35.4,21.3,30.39,NE,45,11.0,11.0,56,0.00,,---,0.00,VWS V14.01,2013-10-28 20:25:00,
2013-10-28 13:30:00,35.2,20.7,30.39,North,0,5.8,11.0,55,0.00,,---,0.00,VWS V14.01,2013-10-28 20:30:00,
2013-10-28 13:35:00,35.1,20.5,30.39,NE,45,5.8,8.1,55,0.00,,---,0.00,VWS V14.01,2013-10-28 20:35:00,
2013-10-28 13:40:00,35.1,20.5,30.39,North,0,8.7,8.7,55,0.00,,---,0.00,VWS V14.01,2013-10-28 20:40:00,
2013-10-28 13:45:00,35.1,20.5,30.39,West,270,4.9,8.3,55,0.00,,---,0.00,VWS V14.01,2013-10-28 20:45:00,
2013-10-28 13:50:00,34.9,19.9,30.39,NNW,338,5.8,6.3,54,0.00,,---,0.00,VWS V14.01,2013-10-28 20:50:00,
2013-10-28 13:55:00,34.9,20.4,30.39,NE,45,10.5,13.2,55,0.00,,---,0.00,VWS V14.01,2013-10-28 20:55:00,
2013-10-28 14:00:00,35.1,20.5,30.39,NNE,22,8.7,8.7,55,0.00,,---,0.00,VWS V14.01,2013-10-28 21:00:00,
2013-10-28 14:05:00,35.2,20.7,30.39,NNE,22,8.7,8.7,55,0.00,,---,0.00,VWS V14.01,2013-10-28 21:05:00,
2013-10-28 14:10:00,35.2,20.7,30.39,North,0,7.6,8.7,55,0.00,,---,0.00,VWS V14.01,2013-10-28 21:10:00,
2013-10-28 14:15:00,35.1,21.0,30.39,NNE,22,6.3,7.2,56,0.00,,---,0.00,VWS V14.01,2013-10-28 21:15:00,
2013-10-28 14:20:00,35.2,22.0,30.39,NNE,22,5.4,5.4,58,0.00,,---,0.00,VWS V14.01,2013-10-28 21:20:00,
2013-10-28 14:25:00,35.4,22.1,30.39,North,0,3.1,6.3,58,0.00,,---,0.00,VWS V14.01,2013-10-28 21:25:00,
2013-10-28 14:30:00,35.4,21.3,30.39,North,0,8.7,8.7,56,0.00,,---,0.00,VWS V14.01,2013-10-28 21:30:00,
2013-10-28 14:35:00,35.4,20.4,30.39,NNE,22,6.3,10.1,54,0.00,,---,0.00,VWS V14.01,2013-10-28 21:35:00,
2013-10-28 14:40:00,35.6,20.2,30.39,NE,45,9.6,10.5,53,0.00,,---,0.00,VWS V14.01,2013-10-28 21:40:00,
2013-10-28 14:45:00,35.6,20.2,30.39,North,0,11.0,11.0,53,0.00,,---,0.00,VWS V14.01,2013-10-28 21:45:00,
2013-10-28 14:50:00,35.6,19.3,30.39,NNE,22,8.1,12.3,51,0.00,,---,0.00,VWS V14.01,2013-10-28 21:50:00,
2013-10-28 14:55:00,35.4,19.1,30.39,North,0,8.3,12.8,51,0.00,,---,0.00,VWS V14.01,2013-10-28 21:55:00,
2013-10-28 15:00:00,35.4,19.6,30.39,North,0,6.7,11.0,52,0.00,,---,0.00,VWS V14.01,2013-10-28 22:00:00,
2013-10-28 15:05:00,35.4,19.1,30.39,North,0,8.3,10.1,51,0.00,,---,0.00,VWS V14.01,2013-10-28 22:05:00,
2013-10-28 15:10:00,35.4,19.6,30.39,NNE,22,8.7,13.2,52,0.00,,---,0.00,VWS V14.01,2013-10-28 22:10:00,
2013-10-28 15:15:00,35.4,19.1,30.39,NNE,22,10.1,13.2,51,0.00,,---,0.00,VWS V14.01,2013-10-28 22:15:00,
2013-10-28 15:20:00,35.4,19.6,30.39,NE,45,6.7,8.7,52,0.00,,---,0.00,VWS V14.01,2013-10-28 22:20:00,
2013-10-28 15:25:00,35.4,19.6,30.39,NE,45,7.6,8.3,52,0.00,,---,0.00,VWS V14.01,2013-10-28 22:25:00,
2013-10-28 15:30:00,35.4,19.6,30.39,North,0,6.7,8.7,52,0.00,,---,0.00,VWS V14.01,2013-10-28 22:30:00,
2013-10-28 15:35:00,35.4,19.6,30.39,North,0,9.6,9.6,52,0.00,,---,0.00,VWS V14.01,2013-10-28 22:35:00,
2013-10-28 15:40:00,35.4,19.1,30.39,North,0,8.3,8.3,51,0.00,,---,0.00,VWS V14.01,2013-10-28 22:40:00,
2013-10-28 15:45:00,35.6,19.3,30.39,ENE,68,8.1,8.7,51,0.00,,---,0.00,VWS V14.01,2013-10-28 22:45:00,
2013-10-28 15:50:00,35.6,18.8,30.39,North,0,7.2,12.3,50,0.00,,---,0.00,VWS V14.01,2013-10-28 22:50:00,
2013-10-28 15:55:00,35.8,19.0,30.41,NE,45,10.1,10.1,50,0.00,,---,0.00,VWS V14.01,2013-10-28 22:55:00,
2013-10-28 16:00:00,35.8,19.4,30.41,North,0,7.6,11.0,51,0.00,,---,0.00,VWS V14.01,2013-10-28 23:00:00,
2013-10-28 16:05:00,35.6,18.8,30.41,NE,45,6.3,7.6,50,0.00,,---,0.00,VWS V14.01,2013-10-28 23:05:00,
2013-10-28 16:10:00,35.6,18.8,30.41,NE,45,8.3,10.5,50,0.00,,---,0.00,VWS V14.01,2013-10-28 23:10:00,
2013-10-28 16:15:00,35.6,18.8,30.41,NE,45,8.7,11.0,50,0.00,,---,0.00,VWS V14.01,2013-10-28 23:15:00,
2013-10-28 16:20:00,35.8,19.0,30.41,NE,45,9.6,13.2,50,0.00,,---,0.00,VWS V14.01,2013-10-28 23:20:00,
2013-10-28 16:25:00,35.8,19.0,30.41,North,0,8.7,8.7,50,0.00,,---,0.00,VWS V14.01,2013-10-28 23:25:00,
2013-10-28 16:30:00,35.8,19.0,30.41,North,0,4.0,13.2,50,0.00,,---,0.00,VWS V14.01,2013-10-28 23:30:00,
2013-10-28 16:35:00,35.8,19.4,30.41,North,0,8.3,8.3,51,0.00,,---,0.00,VWS V14.01,2013-10-28 23:35:00,
2013-10-28 16:40:00,35.8,19.4,30.41,NW,315,6.3,6.3,51,0.00,,---,0.00,VWS V14.01,2013-10-28 23:40:00,
2013-10-28 16:45:00,35.8,19.4,30.41,North,0,7.6,11.0,51,0.00,,---,0.00,VWS V14.01,2013-10-28 23:45:00,
2013-10-28 16:50:00,35.8,19.4,30.41,North,0,5.8,5.8,51,0.00,,---,0.00,VWS V14.01,2013-10-28 23:50:00,
2013-10-28 16:55:00,35.8,19.4,30.41,North,0,5.8,5.8,51,0.00,,---,0.00,VWS V14.01,2013-10-28 23:55:00,
2013-10-28 17:00:00,35.8,19.4,30.41,NE,45,6.7,7.2,51,0.00,,---,0.00,VWS V14.01,2013-10-29 00:00:00,
2013-10-28 17:05:00,35.8,19.9,30.41,NE,45,5.8,9.2,52,0.00,,---,0.00,VWS V14.01,2013-10-29 00:05:00,
2013-10-28 17:10:00,35.8,19.9,30.41,NNE,22,3.6,5.4,52,0.00,,---,0.00,VWS V14.01,2013-10-29 00:10:00,
2013-10-28 17:15:00,35.8,19.9,30.41,NNE,22,4.0,5.4,52,0.00,,---,0.00,VWS V14.01,2013-10-29 00:15:00,
2013-10-28 17:20:00,35.8,19.9,30.41,NNE,22,5.4,5.4,52,0.00,,---,0.00,VWS V14.01,2013-10-29 00:20:00,
2013-10-28 17:25:00,35.8,19.9,30.41,NNE,22,3.6,3.6,52,0.00,,---,0.00,VWS V14.01,2013-10-29 00:25:00,
2013-10-28 17:30:00,35.8,19.9,30.41,NW,315,3.6,3.6,52,0.00,,---,0.00,VWS V14.01,2013-10-29 00:30:00,
2013-10-28 17:35:00,35.8,19.9,30.41,North,0,4.9,6.7,52,0.00,,---,0.00,VWS V14.01,2013-10-29 00:35:00,
2013-10-28 17:40:00,35.8,19.9,30.41,North,0,2.2,6.3,52,0.00,,---,0.00,VWS V14.01,2013-10-29 00:40:00,
2013-10-28 17:45:00,35.8,20.3,30.41,North,0,4.0,4.0,53,0.00,,---,0.00,VWS V14.01,2013-10-29 00:45:00,
2013-10-28 17:50:00,35.6,20.2,30.41,North,0,5.8,5.8,53,0.00,,---,0.00,VWS V14.01,2013-10-29 00:50:00,
2013-10-28 17:55:00,35.6,20.2,30.41,NW,315,4.9,6.3,53,0.00,,---,0.00,VWS V14.01,2013-10-29 00:55:00,
2013-10-28 18:00:00,35.6,20.2,30.41,North,0,3.1,4.0,53,0.00,,---,0.00,VWS V14.01,2013-10-29 01:00:00,
2013-10-28 18:05:00,35.6,20.2,30.41,North,0,4.9,6.3,53,0.00,,---,0.00,VWS V14.01,2013-10-29 01:05:00,
2013-10-28 18:10:00,35.6,20.2,30.44,North,0,5.4,6.7,53,0.00,,---,0.00,VWS V14.01,2013-10-29 01:10:00,
2013-10-28 18:15:00,35.6,20.2,30.44,North,0,2.7,4.0,53,0.00,,---,0.00,VWS V14.01,2013-10-29 01:15:00,
2013-10-28 18:20:00,35.6,20.2,30.44,North,0,2.7,6.3,53,0.00,,---,0.00,VWS V14.01,2013-10-29 01:20:00,
2013-10-28 18:25:00,35.4,20.4,30.44,North,0,2.7,3.6,54,0.00,,---,0.00,VWS V14.01,2013-10-29 01:25:00,
2013-10-28 18:30:00,35.4,20.4,30.44,North,0,3.1,4.0,54,0.00,,---,0.00,VWS V14.01,2013-10-29 01:30:00,
2013-10-28 18:35:00,35.4,20.4,30.44,North,0,8.3,8.3,54,0.00,,---,0.00,VWS V14.01,2013-10-29 01:35:00,
2013-10-28 18:40:00,35.4,20.4,30.44,North,0,4.9,5.4,54,0.00,,---,0.00,VWS V14.01,2013-10-29 01:40:00,
2013-10-28 18:45:00,35.4,20.4,30.44,North,0,3.1,3.1,54,0.00,,---,0.00,VWS V14.01,2013-10-29 01:45:00,
2013-10-28 18:50:00,35.4,20.4,30.44,North,0,2.7,4.9,54,0.00,,---,0.00,VWS V14.01,2013-10-29 01:50:00,
2013-10-28 18:55:00,35.4,20.4,30.44,North,0,4.0,4.9,54,0.00,,---,0.00,VWS V14.01,2013-10-29 01:55:00,
2013-10-28 19:00:00,35.4,20.0,30.44,North,0,3.6,5.8,53,0.00,,---,0.00,VWS V14.01,2013-10-29 02:00:00,
2013-10-28 19:05:00,35.6,20.2,30.44,North,0,4.0,7.2,53,0.00,,---,0.00,VWS V14.01,2013-10-29 02:05:00,
2013-10-28 19:10:00,35.6,20.2,30.44,North,0,3.1,3.6,53,0.00,,---,0.00,VWS V14.01,2013-10-29 02:10:00,
2013-10-28 19:15:00,35.6,19.7,30.44,North,0,5.8,5.8,52,0.00,,---,0.00,VWS V14.01,2013-10-29 02:15:00,
2013-10-28 19:20:00,35.6,19.7,30.44,NNW,338,2.7,5.4,52,0.00,,---,0.00,VWS V14.01,2013-10-29 02:20:00,
2013-10-28 19:25:00,35.6,19.7,30.44,North,0,8.7,8.7,52,0.00,,---,0.00,VWS V14.01,2013-10-29 02:25:00,
2013-10-28 19:30:00,35.6,19.7,30.44,North,0,8.7,8.7,52,0.00,,---,0.00,VWS V14.01,2013-10-29 02:30:00,
2013-10-28 19:35:00,35.4,19.6,30.44,North,0,8.7,8.7,52,0.00,,---,0.00,VWS V14.01,2013-10-29 02:35:00,
2013-10-28 19:40:00,35.4,19.6,30.44,North,0,8.7,8.7,52,0.00,,---,0.00,VWS V14.01,2013-10-29 02:40:00,
2013-10-28 19:45:00,35.1,19.7,30.44,NW,315,4.0,4.0,53,0.00,,---,0.00,VWS V14.01,2013-10-29 02:45:00,
2013-10-28 19:50:00,34.9,19.5,30.44,North,0,3.1,5.8,53,0.00,,---,0.00,VWS V14.01,2013-10-29 02:50:00,
2013-10-28 19:55:00,34.7,19.8,30.44,North,0,3.6,3.6,54,0.00,,---,0.00,VWS V14.01,2013-10-29 02:55:00,
2013-10-28 20:00:00,34.5,19.6,30.44,North,0,2.7,3.1,54,0.00,,---,0.00,VWS V14.01,2013-10-29 03:00:00,
2013-10-28 20:05:00,34.5,19.6,30.44,North,0,2.7,4.9,54,0.00,,---,0.00,VWS V14.01,2013-10-29 03:05:00,
2013-10-28 20:10:00,34.5,19.6,30.44,North,0,0.0,2.7,54,0.00,,---,0.00,VWS V14.01,2013-10-29 03:10:00,
2013-10-28 20:15:00,34.3,19.9,30.44,North,0,4.9,4.9,55,0.00,,---,0.00,VWS V14.01,2013-10-29 03:15:00,
2013-10-28 20:20:00,34.3,19.9,30.44,North,0,5.8,5.8,55,0.00,,---,0.00,VWS V14.01,2013-10-29 03:20:00,
2013-10-28 20:25:00,34.5,20.0,30.44,North,0,4.0,5.8,55,0.00,,---,0.00,VWS V14.01,2013-10-29 03:25:00,
2013-10-28 20:30:00,34.3,19.9,30.44,North,0,3.1,4.5,55,0.00,,---,0.00,VWS V14.01,2013-10-29 03:30:00,
2013-10-28 20:35:00,34.3,19.9,30.44,North,0,0.0,2.7,55,0.00,,---,0.00,VWS V14.01,2013-10-29 03:35:00,
2013-10-28 20:40:00,34.2,19.7,30.44,North,0,2.7,2.7,55,0.00,,---,0.00,VWS V14.01,2013-10-29 03:40:00,
2013-10-28 20:45:00,34.2,19.7,30.44,North,0,3.6,4.5,55,0.00,,---,0.00,VWS V14.01,2013-10-29 03:45:00,
2013-10-28 20:50:00,33.8,19.4,30.44,North,0,2.7,2.7,55,0.00,,---,0.00,VWS V14.01,2013-10-29 03:50:00,
2013-10-28 20:55:00,33.6,19.6,30.44,North,0,0.0,0.0,56,0.00,,---,0.00,VWS V14.01,2013-10-29 03:55:00,
2013-10-28 21:00:00,33.6,19.6,30.44,North,0,4.9,6.7,56,0.00,,---,0.00,VWS V14.01,2013-10-29 04:00:00,
2013-10-28 21:01:00,33.6,19.6,30.44,North,0,4.9,6.7,56,0.00,,---,0.00,VWS V14.01,2013-10-29 04:01:00,
2013-10-28 21:06:00,33.4,19.4,30.44,North,0,2.7,2.7,56,0.00,,---,0.00,VWS V14.01,2013-10-29 04:06:00,
2013-10-28 21:11:00,33.3,19.3,30.44,North,0,0.0,2.7,56,0.00,,---,0.00,VWS V14.01,2013-10-29 04:11:00,
2013-10-28 21:16:00,32.9,19.4,30.44,North,0,0.0,0.0,57,0.00,,---,0.00,VWS V14.01,2013-10-29 04:16:00,
2013-10-28 21:21:00,32.7,19.2,30.44,North,0,2.7,2.7,57,0.00,,---,0.00,VWS V14.01,2013-10-29 04:21:00,
2013-10-28 21:26:00,32.7,19.6,30.44,North,0,5.4,6.3,58,0.00,,---,0.00,VWS V14.01,2013-10-29 04:26:00,
2013-10-28 21:31:00,32.9,19.4,30.44,NNW,338,4.5,5.8,57,0.00,,---,0.00,VWS V14.01,2013-10-29 04:31:00,
2013-10-28 21:36:00,32.9,19.4,30.44,NNW,338,3.6,3.6,57,0.00,,---,0.00,VWS V14.01,2013-10-29 04:36:00,
2013-10-28 21:41:00,32.9,19.4,30.44,NNW,338,3.1,3.1,57,0.00,,---,0.00,VWS V14.01,2013-10-29 04:41:00,
2013-10-28 21:46:00,32.7,19.2,30.44,NNW,338,0.0,0.0,57,0.00,,---,0.00,VWS V14.01,2013-10-29 04:46:00,
2013-10-28 21:51:00,32.5,19.0,30.44,NNW,338,0.0,0.0,57,0.00,,---,0.00,VWS V14.01,2013-10-29 04:51:00,
2013-10-28 21:56:00,32.4,18.8,30.47,NNW,338,2.2,2.7,57,0.00,,---,0.00,VWS V14.01,2013-10-29 04:56:00,
2013-10-28 22:01:00,32.2,18.7,30.47,NNW,338,0.0,0.0,57,0.00,,---,0.00,VWS V14.01,2013-10-29 05:01:00,
2013-10-28 22:06:00,32.0,18.5,30.47,NNW,338,0.0,0.0,57,0.00,,---,0.00,VWS V14.01,2013-10-29 05:06:00,
2013-10-28 22:11:00,32.0,18.9,30.47,NNW,338,2.7,2.7,58,0.00,,---,0.00,VWS V14.01,2013-10-29 05:11:00,
2013-10-28 22:16:00,32.0,18.5,30.47,NNW,338,0.0,0.0,57,0.00,,---,0.00,VWS V14.01,2013-10-29 05:16:00,
2013-10-28 22:21:00,31.5,18.0,30.47,NNW,338,0.0,0.0,57,0.00,,---,0.00,VWS V14.01,2013-10-29 05:21:00,
2013-10-28 22:26:00,31.1,18.1,30.47,NNW,338,0.0,0.0,58,0.00,,---,0.00,VWS V14.01,2013-10-29 05:26:00,
2013-10-28 22:31:00,31.1,18.1,30.47,NNW,338,0.0,0.0,58,0.00,,---,0.00,VWS V14.01,2013-10-29 05:31:00,
2013-10-28 22:36:00,30.7,18.1,30.47,NNW,338,0.0,0.0,59,0.00,,---,0.00,VWS V14.01,2013-10-29 05:36:00,
2013-10-28 22:41:00,30.6,18.0,30.47,NNW,338,0.0,0.0,59,0.00,,---,0.00,VWS V14.01,2013-10-29 05:41:00,
2013-10-28 22:46:00,30.6,18.3,30.47,NNW,338,0.0,0.0,60,0.00,,---,0.00,VWS V14.01,2013-10-29 05:46:00,
2013-10-28 22:51:00,30.9,18.3,30.47,NNW,338,2.7,2.7,59,0.00,,---,0.00,VWS V14.01,2013-10-29 05:51:00,
2013-10-28 22:56:00,31.5,18.8,30.47,NNW,338,0.0,2.7,59,0.00,,---,0.00,VWS V14.01,2013-10-29 05:56:00,
2013-10-28 23:01:00,31.8,18.7,30.47,NNW,338,2.7,2.7,58,0.00,,---,0.00,VWS V14.01,2013-10-29 06:01:00,
2013-10-28 23:06:00,32.2,19.1,30.47,NNW,338,0.0,2.7,58,0.00,,---,0.00,VWS V14.01,2013-10-29 06:06:00,
2013-10-28 23:11:00,32.5,19.0,30.47,NNW,338,0.0,0.0,57,0.00,,---,0.00,VWS V14.01,2013-10-29 06:11:00,
2013-10-28 23:16:00,32.5,18.6,30.47,NNW,338,0.0,0.0,56,0.00,,---,0.00,VWS V14.01,2013-10-29 06:16:00,
2013-10-28 23:21:00,32.7,18.4,30.47,NNW,338,3.6,4.0,55,0.00,,---,0.00,VWS V14.01,2013-10-29 06:21:00,
2013-10-28 23:26:00,32.7,17.9,30.47,NNW,338,0.0,0.0,54,0.00,,---,0.00,VWS V14.01,2013-10-29 06:26:00,
2013-10-28 23:31:00,32.5,17.8,30.47,NNW,338,2.2,2.7,54,0.00,,---,0.00,VWS V14.01,2013-10-29 06:31:00,
2013-10-28 23:36:00,32.4,17.6,30.47,NNW,338,0.0,0.0,54,0.00,,---,0.00,VWS V14.01,2013-10-29 06:36:00,
2013-10-28 23:41:00,31.8,17.5,30.50,NNW,338,0.0,2.2,55,0.00,,---,0.00,VWS V14.01,2013-10-29 06:41:00,
2013-10-28 23:46:00,31.6,17.3,30.50,NNW,338,3.1,3.1,55,0.00,,---,0.00,VWS V14.01,2013-10-29 06:46:00,
2013-10-28 23:51:00,31.5,17.2,30.50,NNW,338,3.1,3.1,55,0.00,,---,0.00,VWS V14.01,2013-10-29 06:51:00,
2013-10-28 23:56:00,31.3,17.0,30.50,NNW,338,0.0,0.0,55,0.00,,---,0.00,VWS V14.01,2013-10-29 06:56:00,